User: anonymous   Login
Location: Fontevrault
(47.1823°N, 0.0493°E)
Time: 16:54:34
(UTC+00:00)
Language:

NOSS 0 Rocket - Orbit

View from above orbital plane
View from above orbital plane
View from above satellite
View from above satellite

Ground track
Ground track

The orbit data is extracted from the following two-line orbital elements,

1 05679U 71110B   21258.88458486 -.00000023  00000-0  24705-4 0  9994
2 05679  69.9979  44.8988 0012761 189.6909 170.3946 13.85359341128999
Epoch (UTC): 15 September 2021 21:13:48
Eccentricity: 0.0012761
inclination: 69.9979°
perigee height: 935 km
apogee height: 954 km
right ascension of ascending node: 44.8988°
argument of perigee: 189.6909°
revolutions per day: 13.85359341
mean anomaly at epoch: 170.3946°
orbit number at epoch: 12899

The dashed part of the orbit path shows where the satellite is in the earth's shadow,  

DLR